| time (UTC) | temp C | wind direction | speed KPH | gust KPH | rain 1hr cm | rain 24hr cm | rain mn cm | humidity % | barometer mb |
| 20260506192726 | 6 | 21 | 6.4 | 8.0 | 0.13 | 2.87 | 2.87 | 99 | 1008.1 |
| 20260506192223 | 6 | 51 | 11.3 | 12.9 | 0.00 | 2.84 | 2.84 | 99 | 1008.2 |
| 20260506191720 | 6 | 32 | 6.4 | 9.7 | 0.18 | 2.84 | 2.84 | 99 | 1008.0 |
| 20260506191216 | 6 | 31 | 8.0 | 11.3 | 0.36 | 2.84 | 2.84 | 99 | 1008.0 |
| 20260506190714 | 6 | 18 | 4.8 | 8.0 | 0.18 | 2.82 | 2.82 | 99 | 1007.9 |
| 20260506190210 | 6 | 70 | 9.7 | 12.9 | 0.30 | 2.79 | 2.79 | 99 | 1008.0 |
| 20260506185708 | 6 | 26 | 12.9 | 17.7 | 0.43 | 2.79 | 2.79 | 99 | 1008.2 |
| 20260506185204 | 6 | 9 | 4.8 | 8.0 | 0.30 | 2.74 | 2.74 | 99 | 1008.3 |
| 20260506184702 | 6 | 72 | 3.2 | 4.8 | 0.71 | 2.74 | 2.74 | 99 | 1007.9 |
| 20260506184158 | 6 | 49 | 3.2 | 4.8 | 0.89 | 2.69 | 2.69 | 99 | 1008.1 |
| 20260506183655 | 6 | 47 | 4.8 | 4.8 | 0.79 | 2.62 | 2.62 | 99 | 1008.4 |
| 20260506183145 | 6 | 27 | 6.4 | 8.0 | 0.66 | 2.57 | 2.57 | 99 | 1007.9 |
| 20260506182643 | 6 | 47 | 1.6 | 4.8 | 0.48 | 2.49 | 2.49 | 99 | 1008.0 |
| 20260506182140 | 6 | 65 | 0.0 | 1.6 | 0.71 | 2.46 | 2.46 | 99 | 1008.3 |
| 20260506181638 | 6 | 60 | 6.4 | 9.7 | 1.02 | 2.41 | 2.41 | 99 | 1007.9 |
| 20260506181135 | 6 | 78 | 8.0 | 9.7 | 1.19 | 2.36 | 2.36 | 99 | 1007.9 |
| 20260506180632 | 7 | 30 | 3.2 | 3.2 | 0.89 | 2.26 | 2.26 | 99 | 1007.9 |
| 20260506180128 | 6 | 46 | 4.8 | 4.8 | 0.48 | 2.16 | 2.16 | 99 | 1007.9 |
| 20260506175624 | 7 | 36 | 3.2 | 4.8 | 0.30 | 2.11 | 2.11 | 99 | 1007.6 |
| 20260506175120 | 7 | 51 | 3.2 | 4.8 | 0.61 | 2.08 | 2.08 | 99 | 1007.7 |
| 20260506174619 | 7 | 55 | 4.8 | 8.0 | 0.89 | 2.06 | 2.06 | 99 | 1007.7 |
| 20260506174115 | 7 | 69 | 8.0 | 11.3 | 0.79 | 2.01 | 2.01 | 99 | 1008.0 |
| 20260506173613 | 7 | 15 | 3.2 | 3.2 | 0.48 | 1.91 | 1.91 | 99 | 1008.0 |
| 20260506173109 | 7 | 19 | 9.7 | 12.9 | 0.48 | 1.88 | 1.88 | 99 | 1007.8 |
| 20260506172607 | 7 | 30 | 3.2 | 4.8 | 0.61 | 1.83 | 1.83 | 99 | 1007.6 |
| 20260506172103 | 7 | 34 | 6.4 | 11.3 | 0.71 | 1.80 | 1.80 | 99 | 1007.8 |
| 20260506171601 | 7 | 341 | 8.0 | 9.7 | 0.48 | 1.73 | 1.73 | 99 | 1008.1 |
| 20260506171058 | 7 | 67 | 3.2 | 8.0 | 0.30 | 1.70 | 1.70 | 99 | 1007.9 |
| 20260506170555 | 7 | 19 | 1.6 | 1.6 | 0.30 | 1.68 | 1.68 | 99 | 1008.0 |
| 20260506170053 | 7 | 53 | 4.8 | 4.8 | 0.30 | 1.65 | 1.65 | 99 | 1007.9 |
| 20260506165551 | 7 | 34 | 8.0 | 11.3 | 0.30 | 1.63 | 1.63 | 99 | 1007.9 |
| 20260506165047 | 7 | 37 | 3.2 | 4.8 | 0.30 | 1.60 | 1.60 | 99 | 1008.2 |
| 20260506164544 | 7 | 56 | 4.8 | 4.8 | 0.36 | 1.57 | 1.57 | 99 | 1008.3 |
| 20260506164041 | 7 | 42 | 3.2 | 3.2 | 0.30 | 1.55 | 1.55 | 99 | 1007.9 |
| 20260506163537 | 7 | 48 | 3.2 | 3.2 | 0.30 | 1.52 | 1.52 | 99 | 1008.2 |
| 20260506163033 | 7 | 44 | 8.0 | 11.3 | 0.18 | 1.50 | 1.50 | 99 | 1008.4 |
| 20260506162530 | 7 | 8 | 4.8 | 4.8 | 0.30 | 1.50 | 1.50 | 99 | 1008.6 |
| 20260506162027 | 7 | 40 | 4.8 | 4.8 | 0.30 | 1.47 | 1.47 | 99 | 1007.8 |
| 20260506161525 | 7 | 19 | 1.6 | 1.6 | 0.48 | 1.45 | 1.45 | 99 | 1008.5 |
| 20260506161021 | 7 | 22 | 4.8 | 4.8 | 0.43 | 1.42 | 1.42 | 99 | 1008.4 |
| 20260506160519 | 7 | 289 | 12.9 | 14.5 | 0.61 | 1.40 | 1.40 | 99 | 1009.0 |
| 20260506160016 | 7 | 36 | 6.4 | 9.7 | 0.48 | 1.35 | 1.35 | 99 | 1008.2 |
| 20260506155514 | 7 | 31 | 3.2 | 3.2 | 0.48 | 1.30 | 1.30 | 99 | 1008.8 |
| 20260506153646 | 7 | 34 | 4.8 | 8.0 | 0.48 | 1.17 | 1.17 | 99 | 1008.7 |
| 20260506153143 | 7 | 6 | 8.0 | 9.7 | 0.43 | 1.14 | 1.14 | 99 | 1009.0 |
| 20260506152639 | 8 | 30 | 3.2 | 8.0 | 0.43 | 1.09 | 1.09 | 99 | 1008.8 |
| 20260506152137 | 8 | 60 | 1.6 | 4.8 | 0.48 | 1.07 | 1.07 | 99 | 1008.6 |
| 20260506151636 | 8 | 20 | 6.4 | 9.7 | 0.30 | 1.04 | 1.04 | 99 | 1008.9 |
| 20260506151132 | 8 | 19 | 3.2 | 4.8 | 0.30 | 0.99 | 0.99 | 99 | 1008.9 |
| 20260506150629 | 8 | 359 | 8.0 | 9.7 | 0.30 | 0.97 | 0.97 | 99 | 1009.3 |
| 20260506150126 | 8 | 38 | 4.8 | 8.0 | 0.30 | 0.94 | 0.94 | 99 | 1009.3 |
| 20260506145623 | 8 | 62 | 4.8 | 8.0 | 0.36 | 0.91 | 0.91 | 99 | 1009.0 |
| 20260506145120 | 8 | 48 | 3.2 | 4.8 | 0.30 | 0.89 | 0.89 | 99 | 1009.3 |
| 20260506144617 | 8 | 39 | 4.8 | 8.0 | 0.30 | 0.86 | 0.86 | 99 | 1009.5 |
| 20260506144114 | 8 | 76 | 4.8 | 8.0 | 0.48 | 0.84 | 0.84 | 99 | 1009.6 |
| 20260506143612 | 8 | 29 | 4.8 | 8.0 | 0.43 | 0.81 | 0.81 | 99 | 1009.6 |
| 20260506143109 | 8 | 49 | 3.2 | 3.2 | 0.43 | 0.76 | 0.76 | 99 | 1009.7 |
| 20260506142607 | 8 | 52 | 0.0 | 1.6 | 0.48 | 0.74 | 0.74 | 99 | 1010.0 |
| 20260506142105 | 8 | 48 | 6.4 | 8.0 | 0.43 | 0.71 | 0.71 | 99 | 1009.7 |
| 20260506141602 | 8 | 56 | 1.6 | 1.6 | 0.30 | 0.66 | 0.66 | 99 | 1009.6 |
| 20260506141101 | 8 | 25 | 1.6 | 3.2 | 0.30 | 0.64 | 0.64 | 99 | 1009.5 |
| 20260506140558 | 8 | 44 | 8.0 | 11.3 | 0.30 | 0.61 | 0.61 | 99 | 1009.9 |
| 20260506140055 | 8 | 37 | 3.2 | 4.8 | 0.36 | 0.58 | 0.58 | 99 | 1009.4 |
| 20260506135552 | 8 | 51 | 3.2 | 4.8 | 0.30 | 0.56 | 0.56 | 99 | 1009.4 |
| 20260506135048 | 8 | 38 | 0.0 | 1.6 | 0.30 | 0.53 | 0.53 | 99 | 1009.2 |
| 20260506134545 | 8 | 45 | 4.8 | 4.8 | 0.30 | 0.53 | 0.53 | 99 | 1009.2 |
| 20260506134040 | 8 | 22 | 8.0 | 11.3 | 0.13 | 0.48 | 0.48 | 99 | 1009.1 |
| 20260506133538 | 8 | 35 | 3.2 | 3.2 | 0.18 | 0.46 | 0.46 | 99 | 1009.1 |
| 20260506133035 | 9 | 45 | 8.0 | 9.7 | 0.30 | 0.46 | 0.46 | 99 | 1009.0 |
| 20260506132532 | 9 | 17 | 8.0 | 16.1 | 0.13 | 0.43 | 0.43 | 99 | 1009.2 |
| 20260506132029 | 10 | 89 | 6.4 | 9.7 | 0.18 | 0.41 | 0.41 | 99 | 1009.2 |
| 20260506131526 | 10 | 28 | 4.8 | 4.8 | 0.30 | 0.41 | 0.41 | 99 | 1008.9 |
| 20260506131023 | 10 | 12 | 4.8 | 8.0 | 0.30 | 0.38 | 0.38 | 99 | 1009.3 |
| 20260506130519 | 10 | 48 | 6.4 | 8.0 | 0.18 | 0.36 | 0.36 | 99 | 1009.4 |
| 20260506130017 | 10 | 29 | 8.0 | 12.9 | 0.13 | 0.33 | 0.33 | 99 | 1009.2 |
| 20260506125515 | 10 | 18 | 0.0 | 1.6 | 0.30 | 0.33 | 0.33 | 99 | 1009.4 |
| 20260506125013 | 10 | 46 | 8.0 | 9.7 | 0.36 | 0.30 | 0.30 | 99 | 1009.3 |
| 20260506124510 | 11 | 31 | 4.8 | 4.8 | 0.30 | 0.28 | 0.28 | 99 | 1009.4 |
| 20260506124008 | 11 | 69 | 1.6 | 1.6 | 0.30 | 0.25 | 0.25 | 99 | 1009.6 |
| 20260506123506 | 11 | 39 | 1.6 | 3.2 | 0.30 | 0.23 | 0.23 | 99 | 1009.6 |
| 20260506123003 | 11 | 38 | 3.2 | 3.2 | 0.30 | 0.20 | 0.20 | 99 | 1009.4 |
| 20260506122500 | 11 | 13 | 6.4 | 8.0 | 0.30 | 0.18 | 0.18 | 99 | 1009.8 |
| 20260506121958 | 11 | 58 | 0.0 | 1.6 | 0.13 | 0.15 | 0.15 | 99 | 1009.7 |
| 20260506121455 | 11 | 53 | 1.6 | 1.6 | 0.30 | 0.15 | 0.15 | 99 | 1009.8 |
| 20260506120952 | 11 | 46 | 4.8 | 8.0 | 0.18 | 0.13 | 0.13 | 99 | 1009.6 |
| 20260506120449 | 11 | 34 | 6.4 | 8.0 | 0.13 | 0.10 | 0.10 | 99 | 1009.4 |
| 20260506115946 | 11 | 41 | 1.6 | 9.7 | 0.13 | 0.10 | 0.10 | 99 | 1009.3 |
| 20260506115444 | 11 | 52 | 6.4 | 9.7 | 0.00 | 0.08 | 0.08 | 99 | 1008.9 |
| 20260506114943 | 11 | 44 | 3.2 | 4.8 | 0.00 | 0.08 | 0.08 | 99 | 1009.2 |
| 20260506114440 | 11 | 27 | 3.2 | 3.2 | 0.00 | 0.08 | 0.08 | 99 | 1009.2 |
| 20260506113938 | 11 | 69 | 3.2 | 4.8 | 0.00 | 0.08 | 0.08 | 99 | 1009.3 |
| 20260506113436 | 12 | 69 | 1.6 | 3.2 | 0.00 | 0.08 | 0.08 | 99 | 1008.9 |
| 20260506112932 | 12 | 10 | 1.6 | 3.2 | 0.00 | 0.08 | 0.08 | 99 | 1009.4 |
| 20260506112430 | 12 | 38 | 0.0 | 1.6 | 0.00 | 0.08 | 0.08 | 99 | 1009.2 |
| 20260506111927 | 12 | 59 | 1.6 | 1.6 | 0.00 | 0.08 | 0.08 | 99 | 1009.3 |
| 20260506111425 | 12 | 40 | 3.2 | 4.8 | 0.00 | 0.08 | 0.08 | 99 | 1008.7 |
| 20260506110922 | 12 | 20 | 4.8 | 4.8 | 0.00 | 0.08 | 0.08 | 99 | 1009.0 |
| 20260506110419 | 12 | 19 | 0.0 | 0.0 | 0.00 | 0.08 | 0.08 | 99 | 1009.1 |
| 20260506105910 | 12 | 22 | 1.6 | 1.6 | 0.18 | 0.08 | 0.08 | 99 | 1008.8 |
| 20260506105406 | 12 | 281 | 4.8 | 4.8 | 0.18 | 0.08 | 0.08 | 99 | 1009.0 |
| 20260506104904 | 12 | 32 | 0.0 | 0.0 | 0.00 | 0.05 | 0.05 | 99 | 1008.8 |
| 20260506104401 | 12 | 33 | 1.6 | 3.2 | 0.00 | 0.05 | 0.05 | 99 | 1008.3 |
| 20260506103859 | 12 | 333 | 4.8 | 4.8 | 0.00 | 0.05 | 0.05 | 99 | 1009.0 |
| 20260506103357 | 12 | 22 | 0.0 | 1.6 | 0.00 | 0.05 | 0.05 | 99 | 1008.8 |
| 20260506102854 | 12 | 271 | 1.6 | 3.2 | 0.00 | 0.05 | 0.05 | 99 | 1009.0 |
| 20260506102352 | 12 | 282 | 3.2 | 3.2 | 0.00 | 0.05 | 0.05 | 99 | 1009.0 |
| 20260506101849 | 12 | 276 | 1.6 | 3.2 | 0.00 | 0.05 | 0.05 | 99 | 1008.7 |
| 20260506101345 | 12 | 9 | 0.0 | 0.0 | 0.00 | 0.05 | 0.05 | 99 | 1008.5 |
| 20260506100843 | 12 | 44 | 0.0 | 0.0 | 0.00 | 0.05 | 0.05 | 99 | 1008.6 |
| 20260506100341 | 12 | 38 | 0.0 | 0.0 | 0.00 | 0.05 | 0.05 | 99 | 1008.5 |
| 20260506095839 | 12 | 44 | 0.0 | 0.0 | 0.00 | 0.05 | 0.05 | 99 | 1008.4 |
| 20260506095336 | 12 | 31 | 0.0 | 0.0 | 0.00 | 0.05 | 0.05 | 99 | 1008.3 |
| 20260506094833 | 12 | 28 | 0.0 | 0.0 | 0.00 | 0.05 | 0.05 | 99 | 1008.3 |
| 20260506094332 | 12 | 324 | 1.6 | 3.2 | 0.00 | 0.05 | 0.05 | 99 | 1008.5 |
| 20260506093829 | 12 | 346 | 0.0 | 1.6 | 0.00 | 0.05 | 0.05 | 99 | 1008.4 |
| 20260506093326 | 12 | 2 | 0.0 | 0.0 | 0.00 | 0.05 | 0.05 | 99 | 1008.4 |
| 20260506092824 | 12 | 352 | 0.0 | 0.0 | 0.00 | 0.05 | 0.05 | 99 | 1008.5 |
| 20260506092321 | 12 | 9 | 0.0 | 0.0 | 0.00 | 0.05 | 0.05 | 99 | 1008.6 |
| 20260506091818 | 11 | 18 | 0.0 | 0.0 | 0.00 | 0.05 | 0.05 | 99 | 1008.5 |
| 20260506091316 | 12 | 20 | 0.0 | 0.0 | 0.00 | 0.05 | 0.05 | 99 | 1008.6 |
| 20260506090814 | 12 | 5 | 0.0 | 1.6 | 0.00 | 0.05 | 0.05 | 99 | 1008.7 |
| 20260506090310 | 11 | 21 | 0.0 | 0.0 | 0.00 | 0.05 | 0.05 | 99 | 1008.7 |
| 20260506085807 | 12 | 9 | 0.0 | 0.0 | 0.00 | 0.05 | 0.05 | 99 | 1008.7 |
| 20260506085305 | 12 | 297 | 3.2 | 3.2 | 0.00 | 0.05 | 0.05 | 99 | 1008.7 |
| 20260506084800 | 12 | 358 | 1.6 | 1.6 | 0.00 | 0.05 | 0.05 | 99 | 1008.7 |
| 20260506084257 | 11 | 4 | 0.0 | 0.0 | 0.00 | 0.05 | 0.05 | 99 | 1008.7 |
| 20260506083754 | 12 | 343 | 1.6 | 1.6 | 0.00 | 0.05 | 0.05 | 99 | 1009.1 |
| 20260506083251 | 12 | 294 | 3.2 | 3.2 | 0.00 | 0.05 | 0.05 | 99 | 1009.0 |
| 20260506082748 | 12 | 7 | 0.0 | 0.0 | 0.00 | 0.05 | 0.05 | 99 | 1008.8 |
| 20260506082243 | 12 | 352 | 0.0 | 0.0 | 0.00 | 0.05 | 0.05 | 99 | 1009.2 |
| 20260506081741 | 12 | 300 | 1.6 | 1.6 | 0.00 | 0.05 | 0.05 | 99 | 1009.4 |
| 20260506081238 | 12 | 339 | 0.0 | 1.6 | 0.00 | 0.05 | 0.05 | 99 | 1009.3 |
| 20260506080737 | 12 | 35 | 0.0 | 0.0 | 0.00 | 0.05 | 0.05 | 99 | 1008.9 |
| 20260506080233 | 12 | 35 | 0.0 | 0.0 | 0.00 | 0.05 | 0.05 | 99 | 1009.1 |
| 20260506073217 | 12 | 16 | 0.0 | 0.0 | 0.00 | 0.05 | 0.05 | 99 | 1009.3 |
| 20260506072714 | 12 | 31 | 0.0 | 0.0 | 0.00 | 0.05 | 0.05 | 99 | 1009.3 |
| 20260506072212 | 13 | 25 | 0.0 | 0.0 | 0.00 | 0.05 | 0.05 | 99 | 1009.3 |
| 20260506071709 | 13 | 359 | 1.6 | 1.6 | 0.00 | 0.05 | 0.05 | 99 | 1009.3 |
| 20260506071207 | 13 | 24 | 0.0 | 0.0 | 0.00 | 0.05 | 0.05 | 99 | 1008.9 |
| 20260506070703 | 13 | 32 | 0.0 | 1.6 | 0.00 | 0.05 | 0.05 | 99 | 1009.3 |
| 20260506070201 | 13 | 21 | 1.6 | 1.6 | 0.00 | 0.05 | 0.05 | 99 | 1009.3 |
| 20260506062137 | 13 | 46 | 0.0 | 0.0 | 0.00 | 0.05 | 0.05 | 99 | 1009.4 |
| 20260506061633 | 13 | 346 | 1.6 | 1.6 | 0.00 | 0.05 | 0.05 | 99 | 1009.4 |
| 20260506061131 | 13 | 257 | 1.6 | 3.2 | 0.00 | 0.05 | 0.05 | 99 | 1009.5 |
| 20260506060629 | 13 | 22 | 0.0 | 1.6 | 0.00 | 0.05 | 0.05 | 99 | 1009.7 |
| 20260506060126 | 13 | 283 | 1.6 | 1.6 | 0.00 | 0.05 | 0.05 | 99 | 1009.5 |
| 20260506051058 | 14 | 65 | 1.6 | 1.6 | 0.00 | 0.05 | 0.05 | 99 | 1009.3 |
| 20260506050556 | 14 | 340 | 0.0 | 1.6 | 0.00 | 0.05 | 0.05 | 99 | 1009.7 |
| 20260506045046 | 15 | 329 | 4.8 | 4.8 | 0.18 | 0.03 | 0.03 | 99 | 1009.8 |
| 20260506044544 | 15 | 8 | 0.0 | 0.0 | 0.00 | 0.00 | 0.00 | 99 | 1010.0 |
| 20260506044041 | 15 | 359 | 0.0 | 1.6 | 0.00 | 0.00 | 0.00 | 98 | 1009.8 |
| 20260506043538 | 15 | 238 | 1.6 | 3.2 | 0.00 | 0.00 | 0.00 | 98 | 1009.9 |
| 20260506043036 | 15 | 288 | 1.6 | 1.6 | 0.00 | 0.00 | 0.00 | 97 | 1009.9 |
| 20260506042535 | 15 | 252 | 1.6 | 3.2 | 0.00 | 0.00 | 0.00 | 96 | 1009.7 |
| 20260506042033 | 15 | 298 | 3.2 | 3.2 | 0.00 | 0.00 | 0.00 | 95 | 1009.4 |
| 20260506041531 | 15 | 350 | 0.0 | 1.6 | 0.00 | 0.00 | 0.00 | 94 | 1009.7 |
| 20260506041027 | 15 | 21 | 0.0 | 0.0 | 0.00 | 0.00 | 0.00 | 94 | 1009.6 |
| 20260506040525 | 15 | 26 | 0.0 | 0.0 | 0.00 | 0.00 | 0.00 | 93 | 1009.3 |
| 20260506040021 | 15 | 5 | 0.0 | 0.0 | 0.00 | 0.05 | 0.05 | 92 | 1009.3 |
| 20260506035518 | 15 | 344 | 1.6 | 1.6 | 0.00 | 0.05 | 0.05 | 91 | 1009.4 |
| 20260506035015 | 16 | 44 | 0.0 | 0.0 | 0.00 | 0.05 | 0.05 | 91 | 1009.4 |
| 20260506034513 | 16 | 44 | 0.0 | 0.0 | 0.00 | 0.05 | 0.05 | 90 | 1009.3 |
| 20260506034009 | 16 | 80 | 1.6 | 1.6 | 0.00 | 0.05 | 0.05 | 90 | 1009.3 |
| 20260506033507 | 16 | 58 | 0.0 | 1.6 | 0.00 | 0.05 | 0.05 | 89 | 1009.3 |
| 20260506033004 | 16 | 79 | 0.0 | 1.6 | 0.00 | 0.05 | 0.05 | 89 | 1009.1 |
| 20260506032501 | 16 | 284 | 3.2 | 3.2 | 0.00 | 0.05 | 0.05 | 89 | 1009.2 |
| 20260506031956 | 16 | 214 | 1.6 | 1.6 | 0.00 | 0.05 | 0.05 | 90 | 1009.1 |
| 20260506031455 | 16 | 286 | 4.8 | 4.8 | 0.00 | 0.05 | 0.05 | 88 | 1008.9 |
| 20260506030952 | 16 | 142 | 0.0 | 1.6 | 0.00 | 0.05 | 0.05 | 89 | 1009.1 |
| 20260506030450 | 16 | 258 | 1.6 | 1.6 | 0.00 | 0.05 | 0.05 | 88 | 1009.1 |
| 20260506025946 | 16 | 238 | 1.6 | 1.6 | 0.00 | 0.05 | 0.05 | 88 | 1008.9 |
| 20260506025443 | 16 | 241 | 3.2 | 3.2 | 0.00 | 0.05 | 0.05 | 87 | 1008.9 |
| 20260506024940 | 16 | 267 | 3.2 | 3.2 | 0.00 | 0.05 | 0.05 | 87 | 1008.9 |
| 20260506024437 | 16 | 149 | 1.6 | 1.6 | 0.00 | 0.05 | 0.05 | 87 | 1008.6 |
| 20260506023932 | 16 | 44 | 0.0 | 0.0 | 0.00 | 0.05 | 0.05 | 87 | 1008.7 |
| 20260506023430 | 16 | 318 | 0.0 | 1.6 | 0.00 | 0.05 | 0.05 | 86 | 1008.5 |
| 20260506022926 | 16 | 248 | 1.6 | 1.6 | 0.00 | 0.05 | 0.05 | 86 | 1008.6 |
| 20260506022424 | 16 | 269 | 3.2 | 3.2 | 0.00 | 0.05 | 0.05 | 85 | 1008.7 |
| 20260506021922 | 16 | 219 | 1.6 | 1.6 | 0.00 | 0.05 | 0.05 | 84 | 1008.7 |
| 20260506021419 | 16 | 292 | 1.6 | 1.6 | 0.00 | 0.05 | 0.05 | 86 | 1008.6 |
| 20260506020916 | 16 | 353 | 0.0 | 0.0 | 0.00 | 0.05 | 0.05 | 86 | 1008.7 |
| 20260506020414 | 16 | 29 | 0.0 | 0.0 | 0.00 | 0.05 | 0.05 | 87 | 1008.6 |
| 20260506015911 | 15 | 354 | 0.0 | 1.6 | 0.00 | 0.05 | 0.05 | 88 | 1008.5 |
| 20260506015408 | 16 | 40 | 0.0 | 0.0 | 0.00 | 0.05 | 0.05 | 87 | 1008.4 |
| 20260506014905 | 16 | 326 | 1.6 | 1.6 | 0.00 | 0.05 | 0.05 | 86 | 1008.5 |
| 20260506014402 | 16 | 339 | 0.0 | 1.6 | 0.00 | 0.05 | 0.05 | 84 | 1008.3 |
| 20260506013858 | 16 | 24 | 0.0 | 1.6 | 0.00 | 0.05 | 0.05 | 84 | 1008.5 |
| 20260506013356 | 16 | 146 | 1.6 | 1.6 | 0.00 | 0.05 | 0.05 | 84 | 1008.3 |
| 20260506012852 | 17 | 69 | 0.0 | 1.6 | 0.00 | 0.05 | 0.05 | 82 | 1008.0 |
| 20260506012349 | 17 | 179 | 1.6 | 1.6 | 0.00 | 0.05 | 0.05 | 82 | 1008.3 |
| 20260506011846 | 17 | 158 | 3.2 | 3.2 | 0.00 | 0.05 | 0.05 | 81 | 1007.9 |
| 20260506011343 | 17 | 245 | 3.2 | 3.2 | 0.00 | 0.05 | 0.05 | 81 | 1008.2 |
| 20260506010840 | 17 | 314 | 1.6 | 1.6 | 0.00 | 0.05 | 0.05 | 80 | 1008.1 |
| 20260506010338 | 16 | 163 | 8.0 | 9.7 | 0.00 | 0.05 | 0.05 | 81 | 1008.0 |
| 20260506005835 | 16 | 262 | 3.2 | 3.2 | 0.00 | 0.05 | 0.05 | 83 | 1007.9 |
| 20260506005332 | 15 | 215 | 1.6 | 1.6 | 0.00 | 0.05 | 0.05 | 84 | 1007.5 |
| 20260506004827 | 16 | 248 | 4.8 | 4.8 | 0.00 | 0.05 | 0.05 | 84 | 1007.5 |
| 20260506004326 | 16 | 329 | 0.0 | 1.6 | 0.00 | 0.05 | 0.05 | 81 | 1007.5 |
| 20260506003821 | 16 | 224 | 0.0 | 0.0 | 0.00 | 0.05 | 0.05 | 82 | 1007.4 |
| 20260506003318 | 15 | 259 | 1.6 | 1.6 | 0.00 | 0.05 | 0.05 | 84 | 1007.4 |
| 20260506002814 | 15 | 240 | 1.6 | 3.2 | 0.00 | 0.05 | 0.05 | 85 | 1007.1 |
| 20260506002310 | 17 | 245 | 4.8 | 4.8 | 0.00 | 0.05 | 0.05 | 78 | 1007.6 |
| 20260506001806 | 17 | 247 | 3.2 | 3.2 | 0.00 | 0.05 | 0.05 | 77 | 1007.3 |
| 20260506001304 | 18 | 60 | 1.6 | 1.6 | 0.00 | 0.05 | 0.05 | 74 | 1007.2 |
| 20260506000801 | 18 | 211 | 3.2 | 3.2 | 0.00 | 0.05 | 0.05 | 74 | 1007.2 |
| 20260506000259 | 18 | 194 | 3.2 | 3.2 | 0.00 | 0.05 | 0.05 | 73 | 1007.2 |
| 20260505235755 | 18 | 264 | 3.2 | 3.2 | 0.00 | 0.05 | 0.05 | 73 | 1007.2 |
| 20260505235252 | 18 | 190 | 4.8 | 4.8 | 0.00 | 0.05 | 0.05 | 72 | 1007.2 |
| 20260505234749 | 18 | 150 | 1.6 | 1.6 | 0.00 | 0.05 | 0.05 | 72 | 1007.1 |
| 20260505234247 | 18 | 129 | 3.2 | 3.2 | 0.00 | 0.05 | 0.05 | 73 | 1007.3 |
| 20260505233743 | 18 | 152 | 3.2 | 3.2 | 0.00 | 0.05 | 0.05 | 74 | 1006.8 |
| 20260505233242 | 18 | 319 | 1.6 | 3.2 | 0.00 | 0.05 | 0.05 | 72 | 1006.6 |
| 20260505232738 | 19 | 228 | 3.2 | 4.8 | 0.00 | 0.05 | 0.05 | 70 | 1006.5 |
| 20260505232236 | 19 | 274 | 0.0 | 1.6 | 0.00 | 0.05 | 0.05 | 70 | 1006.8 |
| 20260505231732 | 19 | 119 | 6.4 | 8.0 | 0.00 | 0.05 | 0.05 | 70 | 1006.7 |
| 20260505231231 | 19 | 169 | 8.0 | 9.7 | 0.00 | 0.05 | 0.05 | 70 | 1006.6 |
| 20260505230729 | 20 | 275 | 1.6 | 3.2 | 0.00 | 0.05 | 0.05 | 67 | 1006.6 |
| 20260505230226 | 20 | 274 | 11.3 | 12.9 | 0.00 | 0.05 | 0.05 | 66 | 1006.2 |
| 20260505225722 | 19 | 299 | 9.7 | 11.3 | 0.00 | 0.05 | 0.05 | 71 | 1006.4 |
| 20260505225219 | 20 | 130 | 3.2 | 3.2 | 0.00 | 0.05 | 0.05 | 70 | 1006.4 |
| 20260505224715 | 19 | 304 | 3.2 | 8.0 | 0.00 | 0.05 | 0.05 | 69 | 1006.6 |
| 20260505224213 | 20 | 253 | 3.2 | 3.2 | 0.00 | 0.05 | 0.05 | 69 | 1006.7 |
| 20260505223710 | 20 | 268 | 4.8 | 8.0 | 0.00 | 0.05 | 0.05 | 67 | 1007.0 |
| 20260505223206 | 20 | 302 | 6.4 | 8.0 | 0.00 | 0.05 | 0.05 | 68 | 1006.8 |
| 20260505222702 | 20 | 136 | 12.9 | 16.1 | 0.00 | 0.05 | 0.05 | 68 | 1006.6 |
| 20260505222158 | 20 | 267 | 4.8 | 4.8 | 0.00 | 0.05 | 0.05 | 69 | 1006.7 |
| 20260505221656 | 20 | 225 | 4.8 | 8.0 | 0.00 | 0.05 | 0.05 | 68 | 1006.6 |
| 20260505221152 | 20 | 147 | 8.0 | 9.7 | 0.00 | 0.05 | 0.05 | 67 | 1006.3 |
| 20260505220649 | 20 | 142 | 12.9 | 16.1 | 0.00 | 0.05 | 0.05 | 64 | 1005.9 |
| 20260505220147 | 20 | 162 | 8.0 | 9.7 | 0.00 | 0.05 | 0.05 | 66 | 1005.9 |
| 20260505215644 | 20 | 149 | 4.8 | 8.0 | 0.00 | 0.05 | 0.05 | 68 | 1005.8 |
| 20260505215142 | 19 | 181 | 1.6 | 4.8 | 0.00 | 0.05 | 0.05 | 69 | 1005.7 |
| 20260505214640 | 20 | 229 | 6.4 | 9.7 | 0.00 | 0.05 | 0.05 | 68 | 1005.7 |
| 20260505214137 | 20 | 305 | 9.7 | 12.9 | 0.00 | 0.05 | 0.05 | 69 | 1005.8 |
| 20260505213635 | 20 | 244 | 17.7 | 25.7 | 0.00 | 0.05 | 0.05 | 68 | 1005.7 |
| 20260505213131 | 20 | 291 | 8.0 | 9.7 | 0.00 | 0.05 | 0.05 | 69 | 1005.9 |
| 20260505212626 | 20 | 319 | 16.1 | 24.1 | 0.00 | 0.05 | 0.05 | 68 | 1005.9 |
| 20260505212124 | 20 | 273 | 8.0 | 9.7 | 0.00 | 0.05 | 0.05 | 68 | 1006.3 |
| 20260505211621 | 20 | 291 | 9.7 | 11.3 | 0.00 | 0.05 | 0.05 | 68 | 1006.3 |
| 20260505211119 | 20 | 259 | 16.1 | 17.7 | 0.00 | 0.05 | 0.05 | 67 | 1006.1 |
| 20260505210615 | 21 | 306 | 24.1 | 29.0 | 0.00 | 0.05 | 0.05 | 65 | 1006.0 |
| 20260505210112 | 21 | 221 | 17.7 | 20.9 | 0.00 | 0.05 | 0.05 | 62 | 1005.6 |
| 20260505205610 | 21 | 334 | 8.0 | 9.7 | 0.00 | 0.05 | 0.05 | 66 | 1005.7 |
| 20260505205107 | 21 | 246 | 11.3 | 14.5 | 0.00 | 0.05 | 0.05 | 69 | 1005.3 |
| 20260505204604 | 21 | 304 | 8.0 | 9.7 | 0.00 | 0.05 | 0.05 | 69 | 1004.9 |
| 20260505204102 | 21 | 48 | 1.6 | 1.6 | 0.00 | 0.05 | 0.05 | 69 | 1004.8 |
| 20260505203558 | 21 | 226 | 6.4 | 8.0 | 0.00 | 0.05 | 0.05 | 69 | 1004.8 |
| 20260505203055 | 20 | 290 | 9.7 | 11.3 | 0.00 | 0.05 | 0.05 | 71 | 1004.7 |
| 20260505202551 | 20 | 305 | 11.3 | 12.9 | 0.00 | 0.05 | 0.05 | 72 | 1004.6 |
| 20260505202047 | 20 | 294 | 11.3 | 12.9 | 0.00 | 0.05 | 0.05 | 74 | 1004.6 |
| 20260505201544 | 19 | 271 | 6.4 | 8.0 | 0.00 | 0.05 | 0.05 | 76 | 1004.4 |
| 20260505201042 | 19 | 300 | 12.9 | 14.5 | 0.00 | 0.05 | 0.05 | 76 | 1004.4 |
| 20260505200540 | 19 | 266 | 9.7 | 11.3 | 0.00 | 0.05 | 0.05 | 75 | 1005.1 |
| 20260505200036 | 19 | 280 | 14.5 | 16.1 | 0.00 | 0.05 | 0.05 | 75 | 1005.7 |
| 20260505195532 | 20 | 290 | 24.1 | 29.0 | 0.00 | 0.05 | 0.05 | 73 | 1006.3 |
| 20260505195029 | 20 | 284 | 24.1 | 29.0 | 0.00 | 0.05 | 0.05 | 71 | 1006.3 |
| 20260505194526 | 20 | 289 | 24.1 | 27.4 | 0.00 | 0.05 | 0.05 | 69 | 1005.6 |
| 20260505194021 | 20 | 270 | 11.3 | 17.7 | 0.13 | 0.05 | 0.05 | 72 | 1005.6 |
| 20260505193519 | 20 | 285 | 8.0 | 9.7 | 0.13 | 0.05 | 0.05 | 71 | 1005.6 |